Time,TemperatureF,DewpointF,PressureIn,WindDirection,WindDirectionDegrees,WindSpeedMPH,WindSpeedGustMPH,Humidity,HourlyPrecipIn,Conditions,Clouds,dailyrainin,SolarRadiationWatts/m^2,SoftwareType,DateUTC
2013-01-15 00:03:00,14.8,10.3,30.31,SW,223,1.0,4.0,82,0.00,,,0.00,0,Wunderground v.1.15,2013-01-15 06:03:00,
2013-01-15 00:08:00,15.2,10.7,30.32,SSW,198,7.0,8.0,82,0.00,,,0.00,0,Wunderground v.1.15,2013-01-15 06:08:00,
2013-01-15 00:13:00,15.3,10.8,30.31,SSW,198,6.0,7.0,82,0.00,,,0.00,0,Wunderground v.1.15,2013-01-15 06:13:00,
2013-01-15 00:18:00,15.2,11.0,30.31,SSW,203,5.0,7.0,83,0.00,,,0.00,0,Wunderground v.1.15,2013-01-15 06:18:00,
2013-01-15 00:23:00,15.4,11.2,30.31,SW,228,6.0,6.0,83,0.00,,,0.00,0,Wunderground v.1.15,2013-01-15 06:23:00,
2013-01-15 00:28:00,15.8,11.6,30.31,SW,223,5.0,6.0,83,0.00,,,0.00,0,Wunderground v.1.15,2013-01-15 06:28:00,
2013-01-15 00:33:00,16.1,11.6,30.31,SW,226,2.0,6.0,82,0.00,,,0.00,0,Wunderground v.1.15,2013-01-15 06:33:00,
2013-01-15 00:38:00,16.2,11.7,30.31,SW,221,4.0,6.0,82,0.00,,,0.00,0,Wunderground v.1.15,2013-01-15 06:38:00,
2013-01-15 00:43:00,16.4,11.9,30.31,SW,223,4.0,4.0,82,0.00,,,0.00,0,Wunderground v.1.15,2013-01-15 06:43:00,
2013-01-15 00:48:00,16.6,12.1,30.31,SW,217,4.0,5.0,82,0.00,,,0.00,0,Wunderground v.1.15,2013-01-15 06:48:00,
2013-01-15 00:53:00,16.5,12.0,30.31,SSW,200,5.0,7.0,82,0.00,,,0.00,0,Wunderground v.1.15,2013-01-15 06:53:00,
2013-01-15 00:58:00,16.6,12.1,30.30,SSW,202,4.0,7.0,82,0.00,,,0.00,0,Wunderground v.1.15,2013-01-15 06:58:00,
2013-01-15 01:03:00,16.7,12.4,30.30,SSW,207,2.0,5.0,83,0.00,,,0.00,0,Wunderground v.1.15,2013-01-15 07:03:00,
2013-01-15 01:08:00,16.8,12.5,30.30,SW,221,3.0,5.0,83,0.00,,,0.00,0,Wunderground v.1.15,2013-01-15 07:08:00,
2013-01-15 01:13:00,16.8,12.3,30.30,SW,216,3.0,5.0,82,0.00,,,0.00,0,Wunderground v.1.15,2013-01-15 07:13:00,
2013-01-15 01:18:00,16.4,11.6,30.30,SSW,202,5.0,7.0,81,0.00,,,0.00,0,Wunderground v.1.15,2013-01-15 07:18:00,
2013-01-15 01:23:00,16.2,11.7,30.30,SW,217,5.0,6.0,82,0.00,,,0.00,0,Wunderground v.1.15,2013-01-15 07:23:00,
2013-01-15 01:28:00,16.1,11.6,30.30,SW,214,4.0,6.0,82,0.00,,,0.00,0,Wunderground v.1.15,2013-01-15 07:28:00,
2013-01-15 01:33:00,15.9,11.1,30.30,SSW,209,3.0,5.0,81,0.00,,,0.00,0,Wunderground v.1.15,2013-01-15 07:33:00,
2013-01-15 01:38:00,15.7,10.9,30.30,SSW,204,6.0,7.0,81,0.00,,,0.00,0,Wunderground v.1.15,2013-01-15 07:38:00,
2013-01-15 01:43:00,15.5,10.7,30.30,SW,215,5.0,7.0,81,0.00,,,0.00,0,Wunderground v.1.15,2013-01-15 07:43:00,
2013-01-15 01:48:00,16.0,11.5,30.29,SW,216,3.0,7.0,82,0.00,,,0.00,0,Wunderground v.1.15,2013-01-15 07:48:00,
2013-01-15 01:53:00,16.1,11.3,30.29,SW,216,3.0,5.0,81,0.00,,,0.00,0,Wunderground v.1.15,2013-01-15 07:53:00,
2013-01-15 01:58:00,16.1,11.3,30.29,SSW,213,2.0,7.0,81,0.00,,,0.00,0,Wunderground v.1.15,2013-01-15 07:58:00,
2013-01-15 02:03:00,16.4,11.6,30.29,SSW,213,7.0,8.0,81,0.00,,,0.00,0,Wunderground v.1.15,2013-01-15 08:03:00,
2013-01-15 02:08:00,16.6,11.8,30.29,SW,225,6.0,8.0,81,0.00,,,0.00,0,Wunderground v.1.15,2013-01-15 08:08:00,
2013-01-15 02:13:00,16.8,11.7,30.29,SW,222,4.0,7.0,80,0.00,,,0.00,0,Wunderground v.1.15,2013-01-15 08:13:00,
2013-01-15 02:18:00,16.8,11.7,30.29,SSW,207,6.0,8.0,80,0.00,,,0.00,0,Wunderground v.1.15,2013-01-15 08:18:00,
2013-01-15 02:23:00,17.0,11.9,30.29,SW,223,6.0,8.0,80,0.00,,,0.00,0,Wunderground v.1.15,2013-01-15 08:23:00,
2013-01-15 02:28:00,17.0,11.6,30.29,SW,228,5.0,9.0,79,0.00,,,0.00,0,Wunderground v.1.15,2013-01-15 08:28:00,
2013-01-15 02:33:00,17.0,11.6,30.29,SSW,211,4.0,7.0,79,0.00,,,0.00,0,Wunderground v.1.15,2013-01-15 08:33:00,
2013-01-15 02:38:00,17.0,11.9,30.29,SW,222,5.0,7.0,80,0.00,,,0.00,0,Wunderground v.1.15,2013-01-15 08:38:00,
2013-01-15 02:43:00,17.1,12.0,30.29,SW,217,6.0,6.0,80,0.00,,,0.00,0,Wunderground v.1.15,2013-01-15 08:43:00,
2013-01-15 02:48:00,17.2,12.1,30.29,SW,215,5.0,8.0,80,0.00,,,0.00,0,Wunderground v.1.15,2013-01-15 08:48:00,
2013-01-15 02:53:00,17.2,12.1,30.28,SSW,202,3.0,6.0,80,0.00,,,0.00,0,Wunderground v.1.15,2013-01-15 08:53:00,
2013-01-15 02:58:00,17.3,12.2,30.28,SSW,199,5.0,7.0,80,0.00,,,0.00,0,Wunderground v.1.15,2013-01-15 08:58:00,
2013-01-15 03:03:00,17.2,12.1,30.28,SSW,202,4.0,6.0,80,0.00,,,0.00,0,Wunderground v.1.15,2013-01-15 09:03:00,
2013-01-15 03:08:00,17.3,12.5,30.28,SSW,199,5.0,8.0,81,0.00,,,0.00,0,Wunderground v.1.15,2013-01-15 09:08:00,
2013-01-15 03:13:00,17.5,12.7,30.28,SW,216,3.0,7.0,81,0.00,,,0.00,0,Wunderground v.1.15,2013-01-15 09:13:00,
2013-01-15 03:18:00,17.7,12.9,30.28,SSW,198,7.0,10.0,81,0.00,,,0.00,0,Wunderground v.1.15,2013-01-15 09:18:00,
2013-01-15 03:23:00,17.7,12.9,30.27,SSW,211,5.0,8.0,81,0.00,,,0.00,0,Wunderground v.1.15,2013-01-15 09:23:00,
2013-01-15 03:28:00,17.8,13.0,30.27,SW,235,7.0,9.0,81,0.00,,,0.00,0,Wunderground v.1.15,2013-01-15 09:28:00,
2013-01-15 03:33:00,17.9,13.1,30.27,SW,225,7.0,8.0,81,0.00,,,0.00,0,Wunderground v.1.15,2013-01-15 09:33:00,
2013-01-15 03:38:00,17.9,13.1,30.27,SW,217,6.0,9.0,81,0.00,,,0.00,0,Wunderground v.1.15,2013-01-15 09:38:00,
2013-01-15 03:43:00,17.7,12.9,30.27,SW,220,5.0,8.0,81,0.00,,,0.00,0,Wunderground v.1.15,2013-01-15 09:43:00,
2013-01-15 03:48:00,17.8,13.0,30.27,SW,223,4.0,8.0,81,0.00,,,0.00,0,Wunderground v.1.15,2013-01-15 09:48:00,
2013-01-15 03:53:00,17.9,13.1,30.27,SW,217,7.0,8.0,81,0.00,,,0.00,0,Wunderground v.1.15,2013-01-15 09:53:00,
2013-01-15 03:58:00,17.8,13.0,30.27,SW,219,4.0,8.0,81,0.00,,,0.00,0,Wunderground v.1.15,2013-01-15 09:58:00,
2013-01-15 04:03:00,17.9,13.3,30.27,SW,230,5.0,7.0,82,0.00,,,0.00,0,Wunderground v.1.15,2013-01-15 10:03:00,
2013-01-15 04:08:00,18.0,13.4,30.26,SW,217,8.0,8.0,82,0.00,,,0.00,0,Wunderground v.1.15,2013-01-15 10:08:00,
2013-01-15 04:13:00,18.2,13.6,30.26,SW,227,5.0,7.0,82,0.00,,,0.00,0,Wunderground v.1.15,2013-01-15 10:13:00,
2013-01-15 04:18:00,18.4,13.8,30.26,SW,225,5.0,9.0,82,0.00,,,0.00,0,Wunderground v.1.15,2013-01-15 10:18:00,
2013-01-15 04:23:00,18.6,14.0,30.26,SW,217,5.0,8.0,82,0.00,,,0.00,0,Wunderground v.1.15,2013-01-15 10:23:00,
2013-01-15 04:28:00,18.6,14.0,30.26,SW,227,8.0,9.0,82,0.00,,,0.00,0,Wunderground v.1.15,2013-01-15 10:28:00,
2013-01-15 04:33:00,18.5,13.9,30.25,SW,222,5.0,9.0,82,0.00,,,0.00,0,Wunderground v.1.15,2013-01-15 10:33:00,
2013-01-15 04:38:00,18.5,13.9,30.25,SW,225,6.0,11.0,82,0.00,,,0.00,0,Wunderground v.1.15,2013-01-15 10:38:00,
2013-01-15 04:43:00,18.2,13.6,30.25,SSW,208,5.0,8.0,82,0.00,,,0.00,0,Wunderground v.1.15,2013-01-15 10:43:00,
2013-01-15 04:48:00,18.1,13.5,30.25,SW,219,4.0,8.0,82,0.00,,,0.00,0,Wunderground v.1.15,2013-01-15 10:48:00,
2013-01-15 04:53:00,17.7,13.1,30.25,SSW,207,5.0,7.0,82,0.00,,,0.00,0,Wunderground v.1.15,2013-01-15 10:53:00,
2013-01-15 04:58:00,17.4,12.8,30.24,SSW,212,3.0,7.0,82,0.00,,,0.00,0,Wunderground v.1.15,2013-01-15 10:58:00,
2013-01-15 05:03:00,16.9,12.4,30.24,SSW,209,4.0,5.0,82,0.00,,,0.00,0,Wunderground v.1.15,2013-01-15 11:03:00,
2013-01-15 05:08:00,16.4,12.1,30.24,SSW,209,3.0,6.0,83,0.00,,,0.00,0,Wunderground v.1.15,2013-01-15 11:08:00,
2013-01-15 05:13:00,15.6,11.4,30.24,SSW,209,4.0,5.0,83,0.00,,,0.00,0,Wunderground v.1.15,2013-01-15 11:13:00,
2013-01-15 05:18:00,15.2,11.0,30.24,SSW,213,4.0,5.0,83,0.00,,,0.00,0,Wunderground v.1.15,2013-01-15 11:18:00,
2013-01-15 05:23:00,14.8,10.6,30.23,SW,221,6.0,7.0,83,0.00,,,0.00,0,Wunderground v.1.15,2013-01-15 11:23:00,
2013-01-15 05:28:00,14.8,10.8,30.24,SW,214,6.0,8.0,84,0.00,,,0.00,0,Wunderground v.1.15,2013-01-15 11:28:00,
2013-01-15 05:33:00,14.3,10.1,30.23,SW,214,5.0,5.0,83,0.00,,,0.00,0,Wunderground v.1.15,2013-01-15 11:33:00,
2013-01-15 05:38:00,13.8,9.9,30.23,SSW,208,6.0,6.0,84,0.00,,,0.00,0,Wunderground v.1.15,2013-01-15 11:38:00,
2013-01-15 05:43:00,13.4,9.5,30.23,SSW,206,3.0,6.0,84,0.00,,,0.00,0,Wunderground v.1.15,2013-01-15 11:43:00,
2013-01-15 05:48:00,13.0,9.1,30.23,SSW,206,4.0,6.0,84,0.00,,,0.00,0,Wunderground v.1.15,2013-01-15 11:48:00,
2013-01-15 05:53:00,12.5,8.6,30.23,SSW,203,7.0,7.0,84,0.00,,,0.00,0,Wunderground v.1.15,2013-01-15 11:53:00,
2013-01-15 05:57:00,12.5,8.8,30.23,SSW,205,6.0,8.0,85,0.00,,,0.00,0,Wunderground v.1.15,2013-01-15 11:57:00,
2013-01-15 06:02:00,12.7,9.0,30.23,SSW,209,4.0,8.0,85,0.00,,,0.00,0,Wunderground v.1.15,2013-01-15 12:02:00,
2013-01-15 06:07:00,12.8,9.1,30.23,SSW,205,6.0,8.0,85,0.00,,,0.00,0,Wunderground v.1.15,2013-01-15 12:07:00,
2013-01-15 06:12:00,12.7,9.0,30.23,SSW,202,7.0,8.0,85,0.00,,,0.00,0,Wunderground v.1.15,2013-01-15 12:12:00,
2013-01-15 06:17:00,12.9,9.2,30.24,SSW,206,5.0,8.0,85,0.00,,,0.00,0,Wunderground v.1.15,2013-01-15 12:17:00,
2013-01-15 06:22:00,13.0,9.6,30.23,SSW,205,4.0,6.0,86,0.00,,,0.00,0,Wunderground v.1.15,2013-01-15 12:22:00,
2013-01-15 06:27:00,12.9,9.5,30.24,SSW,208,6.0,7.0,86,0.00,,,0.00,0,Wunderground v.1.15,2013-01-15 12:27:00,
2013-01-15 06:32:00,12.5,9.1,30.23,SSW,205,6.0,8.0,86,0.00,,,0.00,0,Wunderground v.1.15,2013-01-15 12:32:00,
2013-01-15 06:37:00,12.1,8.5,30.23,SSW,202,7.0,8.0,85,0.00,,,0.00,0,Wunderground v.1.15,2013-01-15 12:37:00,
2013-01-15 06:42:00,12.2,8.8,30.23,SSW,202,5.0,7.0,86,0.00,,,0.00,0,Wunderground v.1.15,2013-01-15 12:42:00,
2013-01-15 06:47:00,12.0,8.6,30.23,SSW,206,6.0,8.0,86,0.00,,,0.00,0,Wunderground v.1.15,2013-01-15 12:47:00,
2013-01-15 06:52:00,12.1,8.7,30.23,SSW,210,5.0,8.0,86,0.00,,,0.00,0,Wunderground v.1.15,2013-01-15 12:52:00,
2013-01-15 06:57:00,12.1,8.7,30.23,SSW,204,6.0,8.0,86,0.00,,,0.00,0,Wunderground v.1.15,2013-01-15 12:57:00,
2013-01-15 07:02:00,12.0,8.6,30.23,SSW,198,5.0,7.0,86,0.00,,,0.00,0,Wunderground v.1.15,2013-01-15 13:02:00,
2013-01-15 07:07:00,12.1,8.7,30.22,SSW,196,7.0,8.0,86,0.00,,,0.00,0,Wunderground v.1.15,2013-01-15 13:07:00,
2013-01-15 07:12:00,12.3,8.9,30.22,SSW,199,7.0,9.0,86,0.00,,,0.00,0,Wunderground v.1.15,2013-01-15 13:12:00,
2013-01-15 07:17:00,12.5,9.1,30.22,South,187,10.0,10.0,86,0.00,,,0.00,0,Wunderground v.1.15,2013-01-15 13:17:00,
2013-01-15 07:22:00,12.5,9.1,30.22,SSW,196,7.0,10.0,86,0.00,,,0.00,0,Wunderground v.1.15,2013-01-15 13:22:00,
2013-01-15 07:27:00,12.7,9.6,30.22,SSW,202,6.0,10.0,87,0.00,,,0.00,0,Wunderground v.1.15,2013-01-15 13:27:00,
2013-01-15 07:32:00,12.7,9.3,30.22,SSW,206,5.0,10.0,86,0.00,,,0.00,0,Wunderground v.1.15,2013-01-15 13:32:00,
2013-01-15 07:38:00,12.5,9.1,30.22,SSW,198,7.0,10.0,86,0.00,,,0.00,0,Wunderground v.1.15,2013-01-15 13:38:00,
2013-01-15 07:43:00,12.0,8.6,30.21,SSW,192,5.0,6.0,86,0.00,,,0.00,0,Wunderground v.1.15,2013-01-15 13:43:00,
2013-01-15 07:48:00,11.5,8.1,30.21,SSW,198,5.0,7.0,86,0.00,,,0.00,0,Wunderground v.1.15,2013-01-15 13:48:00,
2013-01-15 07:53:00,11.2,7.8,30.22,SSW,205,4.0,5.0,86,0.00,,,0.00,0,Wunderground v.1.15,2013-01-15 13:53:00,
2013-01-15 07:58:00,10.8,7.4,30.21,SSW,211,6.0,7.0,86,0.00,,,0.00,0,Wunderground v.1.15,2013-01-15 13:58:00,
2013-01-15 08:03:00,10.4,7.0,30.21,SSW,202,4.0,7.0,86,0.00,,,0.00,5,Wunderground v.1.15,2013-01-15 14:03:00,
2013-01-15 08:08:00,9.9,6.6,30.21,SSW,202,5.0,7.0,86,0.00,,,0.00,9,Wunderground v.1.15,2013-01-15 14:08:00,
2013-01-15 08:13:00,9.9,6.6,30.21,SSW,202,4.0,6.0,86,0.00,,,0.00,12,Wunderground v.1.15,2013-01-15 14:13:00,
2013-01-15 08:18:00,10.1,6.7,30.21,SSW,212,5.0,7.0,86,0.00,,,0.00,14,Wunderground v.1.15,2013-01-15 14:18:00,
2013-01-15 08:23:00,10.6,7.5,30.22,SW,227,5.0,6.0,87,0.00,,,0.00,18,Wunderground v.1.15,2013-01-15 14:23:00,
2013-01-15 08:28:00,10.8,7.7,30.22,SW,227,6.0,8.0,87,0.00,,,0.00,26,Wunderground v.1.15,2013-01-15 14:28:00,
2013-01-15 08:33:00,10.9,7.8,30.22,SW,222,5.0,8.0,87,0.00,,,0.00,39,Wunderground v.1.15,2013-01-15 14:33:00,
2013-01-15 08:38:00,11.1,8.0,30.22,SW,223,5.0,8.0,87,0.00,,,0.00,49,Wunderground v.1.15,2013-01-15 14:38:00,
2013-01-15 08:43:00,11.6,8.5,30.22,SW,220,5.0,10.0,87,0.00,,,0.00,62,Wunderground v.1.15,2013-01-15 14:43:00,
2013-01-15 08:48:00,12.1,9.0,30.21,SW,225,6.0,10.0,87,0.00,,,0.00,76,Wunderground v.1.15,2013-01-15 14:48:00,
2013-01-15 08:53:00,12.6,9.5,30.21,SW,217,9.0,10.0,87,0.00,,,0.00,90,Wunderground v.1.15,2013-01-15 14:53:00,
2013-01-15 08:58:00,13.0,9.6,30.21,SW,226,6.0,11.0,86,0.00,,,0.00,105,Wunderground v.1.15,2013-01-15 14:58:00,
2013-01-15 09:03:00,13.1,9.7,30.21,SSW,204,7.0,9.0,86,0.00,,,0.00,120,Wunderground v.1.15,2013-01-15 15:03:00,
2013-01-15 09:08:00,13.5,10.1,30.21,SSW,213,7.0,9.0,86,0.00,,,0.00,135,Wunderground v.1.15,2013-01-15 15:08:00,
2013-01-15 09:13:00,13.9,10.5,30.21,SW,220,7.0,8.0,86,0.00,,,0.00,151,Wunderground v.1.15,2013-01-15 15:13:00,
2013-01-15 09:18:00,14.6,11.2,30.21,SW,227,8.0,9.0,86,0.00,,,0.00,167,Wunderground v.1.15,2013-01-15 15:18:00,
2013-01-15 09:23:00,15.0,11.6,30.21,SW,221,8.0,10.0,86,0.00,,,0.00,183,Wunderground v.1.15,2013-01-15 15:23:00,
2013-01-15 09:28:00,15.4,11.7,30.20,SSW,206,5.0,10.0,85,0.00,,,0.00,199,Wunderground v.1.15,2013-01-15 15:28:00,
2013-01-15 09:33:00,16.2,12.5,30.20,SW,221,7.0,9.0,85,0.00,,,0.00,216,Wunderground v.1.15,2013-01-15 15:33:00,
2013-01-15 09:38:00,16.8,12.8,30.20,SW,219,6.0,13.0,84,0.00,,,0.00,232,Wunderground v.1.15,2013-01-15 15:38:00,
2013-01-15 09:43:00,17.7,13.1,30.20,SSW,206,10.0,13.0,82,0.00,,,0.00,251,Wunderground v.1.15,2013-01-15 15:43:00,
2013-01-15 09:48:00,18.2,13.1,30.20,SW,220,8.0,14.0,80,0.00,,,0.00,269,Wunderground v.1.15,2013-01-15 15:48:00,
2013-01-15 09:53:00,18.8,13.4,30.19,SW,231,8.0,14.0,79,0.00,,,0.00,281,Wunderground v.1.15,2013-01-15 15:53:00,
2013-01-15 09:58:00,19.4,13.4,30.19,SW,220,9.0,14.0,77,0.00,,,0.00,294,Wunderground v.1.15,2013-01-15 15:58:00,
2013-01-15 10:03:00,20.1,13.4,30.19,SW,224,10.0,14.0,75,0.00,,,0.00,308,Wunderground v.1.15,2013-01-15 16:03:00,
2013-01-15 10:08:00,21.2,13.6,30.19,SW,225,7.0,14.0,72,0.00,,,0.00,320,Wunderground v.1.15,2013-01-15 16:08:00,
2013-01-15 10:13:00,22.2,13.6,30.19,WSW,258,10.0,14.0,69,0.00,,,0.00,329,Wunderground v.1.15,2013-01-15 16:13:00,
2013-01-15 10:18:00,23.1,12.7,30.19,SW,222,13.0,18.0,64,0.00,,,0.00,334,Wunderground v.1.15,2013-01-15 16:18:00,
2013-01-15 10:23:00,23.6,12.1,30.19,SW,230,5.0,16.0,61,0.00,,,0.00,341,Wunderground v.1.15,2013-01-15 16:23:00,
2013-01-15 10:28:00,24.2,12.3,30.19,SSW,212,5.0,16.0,60,0.00,,,0.00,350,Wunderground v.1.15,2013-01-15 16:28:00,
2013-01-15 10:33:00,23.9,11.3,30.18,WSW,253,5.0,17.0,58,0.00,,,0.00,360,Wunderground v.1.15,2013-01-15 16:33:00,
2013-01-15 10:38:00,24.0,11.0,30.18,WSW,251,8.0,17.0,57,0.00,,,0.00,371,Wunderground v.1.15,2013-01-15 16:38:00,
2013-01-15 10:43:00,24.2,11.1,30.18,SW,229,12.0,16.0,57,0.00,,,0.00,380,Wunderground v.1.15,2013-01-15 16:43:00,
2013-01-15 10:48:00,24.3,11.2,30.18,SW,221,10.0,16.0,57,0.00,,,0.00,388,Wunderground v.1.15,2013-01-15 16:48:00,
2013-01-15 10:53:00,25.1,12.0,30.18,SW,226,9.0,14.0,57,0.00,,,0.00,397,Wunderground v.1.15,2013-01-15 16:53:00,
2013-01-15 10:58:00,26.0,11.2,30.17,WSW,240,11.0,16.0,53,0.00,,,0.00,406,Wunderground v.1.15,2013-01-15 16:58:00,
2013-01-15 11:03:00,25.7,9.2,30.17,SSW,213,8.0,16.0,49,0.00,,,0.00,413,Wunderground v.1.15,2013-01-15 17:03:00,
2013-01-15 11:08:00,25.8,8.3,30.17,SW,223,8.0,18.0,47,0.00,,,0.00,422,Wunderground v.1.15,2013-01-15 17:08:00,
2013-01-15 11:13:00,26.1,8.6,30.17,WSW,239,13.0,19.0,47,0.00,,,0.00,429,Wunderground v.1.15,2013-01-15 17:13:00,
2013-01-15 11:18:00,26.4,7.9,30.17,SSW,207,7.0,19.0,45,0.00,,,0.00,436,Wunderground v.1.15,2013-01-15 17:18:00,
2013-01-15 11:23:00,27.1,9.0,30.17,SW,221,8.0,14.0,46,0.00,,,0.00,443,Wunderground v.1.15,2013-01-15 17:23:00,
2013-01-15 11:28:00,27.4,8.8,30.16,SW,217,11.0,18.0,45,0.00,,,0.00,450,Wunderground v.1.15,2013-01-15 17:28:00,
2013-01-15 11:33:00,27.4,7.3,30.16,WSW,248,10.0,22.0,42,0.00,,,0.00,455,Wunderground v.1.15,2013-01-15 17:33:00,
2013-01-15 11:38:00,27.8,7.6,30.15,SW,228,11.0,22.0,42,0.00,,,0.00,461,Wunderground v.1.15,2013-01-15 17:38:00,
2013-01-15 11:43:00,28.2,6.9,30.15,SW,234,6.0,16.0,40,0.00,,,0.00,468,Wunderground v.1.15,2013-01-15 17:43:00,
2013-01-15 11:48:00,28.7,8.5,30.15,WSW,254,10.0,17.0,42,0.00,,,0.00,471,Wunderground v.1.15,2013-01-15 17:48:00,
2013-01-15 11:53:00,28.8,7.5,30.15,SSW,210,8.0,15.0,40,0.00,,,0.00,476,Wunderground v.1.15,2013-01-15 17:53:00,
2013-01-15 11:58:00,29.2,7.8,30.14,SW,227,12.0,17.0,40,0.00,,,0.00,482,Wunderground v.1.15,2013-01-15 17:58:00,
2013-01-15 12:03:00,28.9,7.0,30.14,SW,228,10.0,18.0,39,0.00,,,0.00,485,Wunderground v.1.15,2013-01-15 18:03:00,
2013-01-15 12:08:00,29.2,7.3,30.14,SSW,211,8.0,21.0,39,0.00,,,0.00,490,Wunderground v.1.15,2013-01-15 18:08:00,
2013-01-15 12:13:00,29.9,8.5,30.13,WSW,240,7.0,18.0,40,0.00,,,0.00,492,Wunderground v.1.15,2013-01-15 18:13:00,
2013-01-15 12:18:00,29.8,7.2,30.13,SW,228,8.0,18.0,38,0.00,,,0.00,496,Wunderground v.1.15,2013-01-15 18:18:00,
2013-01-15 12:23:00,29.8,7.2,30.12,SW,215,15.0,18.0,38,0.00,,,0.00,499,Wunderground v.1.15,2013-01-15 18:23:00,
2013-01-15 12:28:00,30.0,7.4,30.12,SW,216,10.0,18.0,38,0.00,,,0.00,497,Wunderground v.1.15,2013-01-15 18:28:00,
2013-01-15 12:33:00,30.5,8.4,30.12,SW,236,10.0,13.0,39,0.00,,,0.00,503,Wunderground v.1.15,2013-01-15 18:33:00,
2013-01-15 12:38:00,30.0,6.8,30.11,SW,218,14.0,16.0,37,0.00,,,0.00,501,Wunderground v.1.15,2013-01-15 18:38:00,
2013-01-15 12:43:00,29.7,6.6,30.11,SSW,209,9.0,19.0,37,0.00,,,0.00,503,Wunderground v.1.15,2013-01-15 18:43:00,
2013-01-15 12:48:00,30.7,7.5,30.11,SW,223,13.0,19.0,37,0.00,,,0.00,503,Wunderground v.1.15,2013-01-15 18:48:00,
2013-01-15 12:53:00,30.1,5.7,30.10,SSW,202,11.0,18.0,35,0.00,,,0.00,503,Wunderground v.1.15,2013-01-15 18:53:00,
2013-01-15 12:58:00,30.7,6.9,30.10,WSW,246,7.0,18.0,36,0.00,,,0.00,503,Wunderground v.1.15,2013-01-15 18:58:00,
2013-01-15 13:03:00,30.6,5.5,30.09,SW,232,15.0,20.0,34,0.00,,,0.00,503,Wunderground v.1.15,2013-01-15 19:03:00,
2013-01-15 13:08:00,31.2,6.7,30.09,West,261,14.0,21.0,35,0.00,,,0.00,499,Wunderground v.1.15,2013-01-15 19:08:00,
2013-01-15 13:14:00,31.6,6.4,30.09,SW,223,8.0,17.0,34,0.00,,,0.00,499,Wunderground v.1.15,2013-01-15 19:14:00,
2013-01-15 13:19:00,31.9,7.3,30.08,WSW,237,5.0,17.0,35,0.00,,,0.00,496,Wunderground v.1.15,2013-01-15 19:19:00,
2013-01-15 13:24:00,32.1,6.8,30.08,SSW,213,14.0,18.0,34,0.00,,,0.00,496,Wunderground v.1.15,2013-01-15 19:24:00,
2013-01-15 13:29:00,31.7,6.5,30.08,SSW,212,7.0,18.0,34,0.00,,,0.00,490,Wunderground v.1.15,2013-01-15 19:29:00,
2013-01-15 13:34:00,31.9,6.7,30.08,SW,228,6.0,17.0,34,0.00,,,0.00,490,Wunderground v.1.15,2013-01-15 19:34:00,
2013-01-15 13:39:00,31.9,6.0,30.08,SW,221,15.0,17.0,33,0.00,,,0.00,485,Wunderground v.1.15,2013-01-15 19:39:00,
2013-01-15 13:44:00,31.9,5.3,30.08,SW,232,11.0,18.0,32,0.00,,,0.00,480,Wunderground v.1.15,2013-01-15 19:44:00,
2013-01-15 13:49:00,32.1,5.5,30.07,SW,232,10.0,18.0,32,0.00,,,0.00,476,Wunderground v.1.15,2013-01-15 19:49:00,
2013-01-15 13:54:00,32.6,6.6,30.07,SW,224,11.0,16.0,33,0.00,,,0.00,471,Wunderground v.1.15,2013-01-15 19:54:00,
2013-01-15 13:59:00,32.5,5.9,30.08,SW,216,9.0,16.0,32,0.00,,,0.00,464,Wunderground v.1.15,2013-01-15 19:59:00,
2013-01-15 14:04:00,33.2,6.5,30.08,SW,225,6.0,14.0,32,0.00,,,0.00,461,Wunderground v.1.15,2013-01-15 20:04:00,
2013-01-15 14:09:00,33.7,6.9,30.08,West,263,11.0,17.0,32,0.00,,,0.00,454,Wunderground v.1.15,2013-01-15 20:09:00,
2013-01-15 14:14:00,33.5,6.0,30.08,WSW,251,12.0,15.0,31,0.00,,,0.00,448,Wunderground v.1.15,2013-01-15 20:14:00,
2013-01-15 14:19:00,33.9,6.4,30.07,SW,219,7.0,15.0,31,0.00,,,0.00,439,Wunderground v.1.15,2013-01-15 20:19:00,
2013-01-15 14:24:00,34.2,6.7,30.07,West,268,5.0,12.0,31,0.00,,,0.00,434,Wunderground v.1.15,2013-01-15 20:24:00,
2013-01-15 14:29:00,33.6,4.7,30.07,SW,225,10.0,16.0,29,0.00,,,0.00,425,Wunderground v.1.15,2013-01-15 20:29:00,
2013-01-15 14:34:00,33.7,4.8,30.06,SW,236,11.0,16.0,29,0.00,,,0.00,418,Wunderground v.1.15,2013-01-15 20:34:00,
2013-01-15 14:39:00,33.3,4.4,30.06,SSW,210,14.0,19.0,29,0.00,,,0.00,410,Wunderground v.1.15,2013-01-15 20:39:00,
2013-01-15 14:44:00,33.2,4.3,30.06,WSW,249,8.0,18.0,29,0.00,,,0.00,403,Wunderground v.1.15,2013-01-15 20:44:00,
2013-01-15 14:49:00,33.7,5.5,30.06,SW,233,8.0,18.0,30,0.00,,,0.00,394,Wunderground v.1.15,2013-01-15 20:49:00,
2013-01-15 14:54:00,34.0,5.0,30.07,SSW,213,5.0,13.0,29,0.00,,,0.00,383,Wunderground v.1.15,2013-01-15 20:54:00,
2013-01-15 14:59:00,34.1,5.9,30.07,West,265,9.0,14.0,30,0.00,,,0.00,374,Wunderground v.1.15,2013-01-15 20:59:00,
2013-01-15 15:04:00,34.2,5.9,30.07,SW,215,9.0,14.0,30,0.00,,,0.00,364,Wunderground v.1.15,2013-01-15 21:04:00,
2013-01-15 15:09:00,33.9,6.4,30.07,SW,219,11.0,18.0,31,0.00,,,0.00,352,Wunderground v.1.15,2013-01-15 21:09:00,
2013-01-15 15:14:00,33.7,5.5,30.07,SW,236,6.0,16.0,30,0.00,,,0.00,343,Wunderground v.1.15,2013-01-15 21:14:00,
2013-01-15 15:19:00,33.5,5.3,30.06,SW,215,11.0,17.0,30,0.00,,,0.00,330,Wunderground v.1.15,2013-01-15 21:19:00,
2013-01-15 15:24:00,33.7,5.5,30.07,SW,227,7.0,17.0,30,0.00,,,0.00,322,Wunderground v.1.15,2013-01-15 21:24:00,
2013-01-15 15:29:00,33.9,6.4,30.07,SW,231,8.0,17.0,31,0.00,,,0.00,309,Wunderground v.1.15,2013-01-15 21:29:00,
2013-01-15 15:34:00,33.9,5.7,30.06,WSW,249,7.0,11.0,30,0.00,,,0.00,299,Wunderground v.1.15,2013-01-15 21:34:00,
2013-01-15 15:39:00,33.9,5.7,30.06,SW,225,8.0,14.0,30,0.00,,,0.00,287,Wunderground v.1.15,2013-01-15 21:39:00,
2013-01-15 15:44:00,33.8,6.3,30.06,WSW,238,6.0,14.0,31,0.00,,,0.00,274,Wunderground v.1.15,2013-01-15 21:44:00,
2013-01-15 15:49:00,33.8,6.3,30.07,SW,234,13.0,14.0,31,0.00,,,0.00,258,Wunderground v.1.15,2013-01-15 21:49:00,
2013-01-15 15:54:00,33.9,7.1,30.06,WSW,242,7.0,12.0,32,0.00,,,0.00,243,Wunderground v.1.15,2013-01-15 21:54:00,
2013-01-15 15:59:00,33.7,5.5,30.05,SW,232,13.0,16.0,30,0.00,,,0.00,229,Wunderground v.1.15,2013-01-15 21:59:00,
2013-01-15 16:04:00,33.6,6.1,30.06,SW,215,9.0,16.0,31,0.00,,,0.00,211,Wunderground v.1.15,2013-01-15 22:04:00,
2013-01-15 16:09:00,33.6,6.1,30.05,SW,225,11.0,16.0,31,0.00,,,0.00,195,Wunderground v.1.15,2013-01-15 22:09:00,
2013-01-15 16:14:00,33.4,6.0,30.06,SW,225,5.0,14.0,31,0.00,,,0.00,178,Wunderground v.1.15,2013-01-15 22:14:00,
2013-01-15 16:19:00,33.4,6.7,30.06,WSW,252,9.0,14.0,32,0.00,,,0.00,160,Wunderground v.1.15,2013-01-15 22:19:00,
2013-01-15 16:24:00,33.3,5.9,30.05,SW,229,5.0,15.0,31,0.00,,,0.00,142,Wunderground v.1.15,2013-01-15 22:24:00,
2013-01-15 16:29:00,33.2,6.5,30.05,South,190,8.0,15.0,32,0.00,,,0.00,125,Wunderground v.1.15,2013-01-15 22:29:00,
2013-01-15 16:34:00,33.0,6.3,30.05,SW,231,7.0,13.0,32,0.00,,,0.00,111,Wunderground v.1.15,2013-01-15 22:34:00,
2013-01-15 16:39:00,32.8,6.1,30.05,WSW,250,8.0,14.0,32,0.00,,,0.00,95,Wunderground v.1.15,2013-01-15 22:39:00,
2013-01-15 16:44:00,32.6,7.3,30.05,SW,217,7.0,11.0,34,0.00,,,0.00,79,Wunderground v.1.15,2013-01-15 22:44:00,
2013-01-15 16:49:00,32.4,7.1,30.05,SW,221,6.0,11.0,34,0.00,,,0.00,65,Wunderground v.1.15,2013-01-15 22:49:00,
2013-01-15 16:54:00,32.0,6.8,30.05,SW,221,9.0,9.0,34,0.00,,,0.00,39,Wunderground v.1.15,2013-01-15 22:54:00,
2013-01-15 16:59:00,31.6,7.0,30.05,SW,230,7.0,9.0,35,0.00,,,0.00,16,Wunderground v.1.15,2013-01-15 22:59:00,
2013-01-15 17:04:00,30.9,7.0,30.05,SW,220,4.0,7.0,36,0.00,,,0.00,14,Wunderground v.1.15,2013-01-15 23:04:00,
2013-01-15 17:09:00,30.3,7.1,30.05,SSW,213,5.0,7.0,37,0.00,,,0.00,12,Wunderground v.1.15,2013-01-15 23:09:00,
2013-01-15 17:14:00,29.9,7.3,30.06,SW,223,5.0,7.0,38,0.00,,,0.00,11,Wunderground v.1.15,2013-01-15 23:14:00,
2013-01-15 17:19:00,29.5,7.0,30.06,SW,232,3.0,7.0,38,0.00,,,0.00,7,Wunderground v.1.15,2013-01-15 23:19:00,
2013-01-15 17:24:00,29.0,7.1,30.06,SW,220,4.0,7.0,39,0.00,,,0.00,5,Wunderground v.1.15,2013-01-15 23:24:00,
2013-01-15 17:29:00,28.3,7.0,30.06,SW,219,6.0,7.0,40,0.00,,,0.00,0,Wunderground v.1.15,2013-01-15 23:29:00,
2013-01-15 17:34:00,27.8,7.1,30.06,SW,231,6.0,6.0,41,0.00,,,0.00,0,Wunderground v.1.15,2013-01-15 23:34:00,
2013-01-15 17:39:00,27.6,7.5,30.05,SW,219,6.0,7.0,42,0.00,,,0.00,0,Wunderground v.1.15,2013-01-15 23:39:00,
2013-01-15 17:44:00,26.3,7.3,30.05,SW,220,4.0,6.0,44,0.00,,,0.00,0,Wunderground v.1.15,2013-01-15 23:44:00,
2013-01-15 17:49:00,25.0,7.1,30.06,SW,217,2.0,6.0,46,0.00,,,0.00,0,Wunderground v.1.15,2013-01-15 23:49:00,
2013-01-15 17:54:00,23.2,6.8,30.06,SW,217,4.0,5.0,49,0.00,,,0.00,0,Wunderground v.1.15,2013-01-15 23:54:00,
2013-01-15 17:59:00,21.8,6.4,30.06,SSW,207,6.0,6.0,51,0.00,,,0.00,0,Wunderground v.1.15,2013-01-15 23:59:00,
2013-01-15 18:04:00,21.2,6.7,30.06,SSW,206,3.0,7.0,53,0.00,,,0.00,0,Wunderground v.1.15,2013-01-16 00:04:00,
2013-01-15 18:09:00,21.0,6.5,30.06,SW,218,3.0,7.0,53,0.00,,,0.00,0,Wunderground v.1.15,2013-01-16 00:09:00,
2013-01-15 18:14:00,19.8,6.2,30.05,SW,217,3.0,5.0,55,0.00,,,0.00,0,Wunderground v.1.15,2013-01-16 00:14:00,
2013-01-15 18:19:00,19.1,6.3,30.05,SW,217,2.0,5.0,57,0.00,,,0.00,0,Wunderground v.1.15,2013-01-16 00:19:00,
2013-01-15 18:24:00,18.3,6.4,30.05,SSW,210,4.0,5.0,59,0.00,,,0.00,0,Wunderground v.1.15,2013-01-16 00:24:00,
2013-01-15 18:29:00,18.5,6.9,30.05,SW,217,2.0,5.0,60,0.00,,,0.00,0,Wunderground v.1.15,2013-01-16 00:29:00,
2013-01-15 18:34:00,18.5,6.9,30.05,SSW,210,4.0,6.0,60,0.00,,,0.00,0,Wunderground v.1.15,2013-01-16 00:34:00,
2013-01-15 18:39:00,17.7,6.5,30.05,SW,223,3.0,6.0,61,0.00,,,0.00,0,Wunderground v.1.15,2013-01-16 00:39:00,
2013-01-15 18:44:00,17.4,6.9,30.05,SW,224,5.0,6.0,63,0.00,,,0.00,0,Wunderground v.1.15,2013-01-16 00:44:00,
2013-01-15 18:49:00,17.7,6.9,30.05,SW,218,2.0,6.0,62,0.00,,,0.00,0,Wunderground v.1.15,2013-01-16 00:49:00,
2013-01-15 18:55:00,18.0,7.2,30.05,SW,228,4.0,6.0,62,0.00,,,0.00,0,Wunderground v.1.15,2013-01-16 00:55:00,
2013-01-15 19:00:00,17.5,7.4,30.05,SSW,203,7.0,7.0,64,0.00,,,0.00,0,Wunderground v.1.15,2013-01-16 01:00:00,
2013-01-15 19:05:00,17.7,7.9,30.05,SSW,202,6.0,7.0,65,0.00,,,0.00,0,Wunderground v.1.15,2013-01-16 01:05:00,
2013-01-15 19:10:00,18.1,8.3,30.04,SSW,205,7.0,7.0,65,0.00,,,0.00,0,Wunderground v.1.15,2013-01-16 01:10:00,
2013-01-15 19:15:00,18.3,8.1,30.04,SSW,202,5.0,7.0,64,0.00,,,0.00,0,Wunderground v.1.15,2013-01-16 01:15:00,
2013-01-15 19:20:00,18.5,8.3,30.04,SSW,199,5.0,5.0,64,0.00,,,0.00,0,Wunderground v.1.15,2013-01-16 01:20:00,
2013-01-15 19:25:00,19.2,8.7,30.04,SSW,207,4.0,6.0,63,0.00,,,0.00,0,Wunderground v.1.15,2013-01-16 01:25:00,
2013-01-15 19:30:00,19.8,8.9,30.04,SW,227,4.0,4.0,62,0.00,,,0.00,0,Wunderground v.1.15,2013-01-16 01:30:00,
2013-01-15 19:35:00,20.0,8.7,30.03,SW,215,7.0,9.0,61,0.00,,,0.00,0,Wunderground v.1.15,2013-01-16 01:35:00,
2013-01-15 19:40:00,19.8,8.5,30.03,SW,223,4.0,5.0,61,0.00,,,0.00,0,Wunderground v.1.15,2013-01-16 01:40:00,
2013-01-15 19:45:00,19.4,8.5,30.03,SSW,210,3.0,6.0,62,0.00,,,0.00,0,Wunderground v.1.15,2013-01-16 01:45:00,
2013-01-15 19:50:00,18.6,8.1,30.02,SSW,210,3.0,3.0,63,0.00,,,0.00,0,Wunderground v.1.15,2013-01-16 01:50:00,
2013-01-15 19:55:00,18.4,8.6,30.02,SW,227,6.0,7.0,65,0.00,,,0.00,0,Wunderground v.1.15,2013-01-16 01:55:00,
2013-01-15 20:00:00,18.8,8.3,30.03,SW,231,5.0,5.0,63,0.00,,,0.00,0,Wunderground v.1.15,2013-01-16 02:00:00,
2013-01-15 20:05:00,18.6,8.1,30.02,SW,220,5.0,7.0,63,0.00,,,0.00,0,Wunderground v.1.15,2013-01-16 02:05:00,
2013-01-15 20:10:00,18.0,7.5,30.02,SSW,211,4.0,5.0,63,0.00,,,0.00,0,Wunderground v.1.15,2013-01-16 02:10:00,
2013-01-15 20:15:00,17.2,7.4,30.02,SSW,194,6.0,6.0,65,0.00,,,0.00,0,Wunderground v.1.15,2013-01-16 02:15:00,
2013-01-15 20:20:00,17.1,7.7,30.01,SSW,205,7.0,7.0,66,0.00,,,0.00,0,Wunderground v.1.15,2013-01-16 02:20:00,
2013-01-15 20:25:00,17.9,8.5,30.01,SSW,209,7.0,9.0,66,0.00,,,0.00,0,Wunderground v.1.15,2013-01-16 02:25:00,
2013-01-15 20:30:00,18.5,8.7,30.01,SW,223,5.0,6.0,65,0.00,,,0.00,0,Wunderground v.1.15,2013-01-16 02:30:00,
2013-01-15 20:35:00,18.9,8.7,30.01,SSW,205,5.0,8.0,64,0.00,,,0.00,0,Wunderground v.1.15,2013-01-16 02:35:00,
2013-01-15 20:40:00,18.6,8.1,30.00,SW,221,4.0,5.0,63,0.00,,,0.00,0,Wunderground v.1.15,2013-01-16 02:40:00,
2013-01-15 20:45:00,18.0,7.9,30.00,SSW,209,6.0,6.0,64,0.00,,,0.00,0,Wunderground v.1.15,2013-01-16 02:45:00,
2013-01-15 20:50:00,17.3,7.5,30.00,SSW,199,3.0,4.0,65,0.00,,,0.00,0,Wunderground v.1.15,2013-01-16 02:50:00,
2013-01-15 20:55:00,17.4,8.0,30.00,SW,217,4.0,6.0,66,0.00,,,0.00,0,Wunderground v.1.15,2013-01-16 02:55:00,
2013-01-15 21:00:00,17.3,7.9,30.00,SSW,213,6.0,6.0,66,0.00,,,0.00,0,Wunderground v.1.15,2013-01-16 03:00:00,
2013-01-15 21:05:00,17.6,8.2,30.00,SW,222,7.0,8.0,66,0.00,,,0.00,0,Wunderground v.1.15,2013-01-16 03:05:00,
2013-01-15 21:10:00,17.9,8.1,30.00,SW,223,7.0,7.0,65,0.00,,,0.00,0,Wunderground v.1.15,2013-01-16 03:10:00,
2013-01-15 21:15:00,17.7,8.3,30.00,SW,220,6.0,9.0,66,0.00,,,0.00,0,Wunderground v.1.15,2013-01-16 03:15:00,
2013-01-15 21:20:00,17.6,8.2,30.00,SW,221,4.0,6.0,66,0.00,,,0.00,0,Wunderground v.1.15,2013-01-16 03:20:00,
2013-01-15 21:25:00,17.5,8.4,30.00,SW,218,4.0,8.0,67,0.00,,,0.00,0,Wunderground v.1.15,2013-01-16 03:25:00,
2013-01-15 21:30:00,17.4,8.6,30.00,SW,226,7.0,8.0,68,0.00,,,0.00,0,Wunderground v.1.15,2013-01-16 03:30:00,
2013-01-15 21:35:00,17.5,8.7,30.00,SW,215,5.0,8.0,68,0.00,,,0.00,0,Wunderground v.1.15,2013-01-16 03:35:00,
2013-01-15 21:40:00,17.4,9.0,29.99,SW,225,4.0,8.0,69,0.00,,,0.00,0,Wunderground v.1.15,2013-01-16 03:40:00,
2013-01-15 21:45:00,18.4,9.9,29.99,SSW,196,8.0,11.0,69,0.00,,,0.00,0,Wunderground v.1.15,2013-01-16 03:45:00,
2013-01-15 21:50:00,18.6,9.8,29.99,SW,215,6.0,7.0,68,0.00,,,0.00,0,Wunderground v.1.15,2013-01-16 03:50:00,
2013-01-15 21:55:00,18.5,9.7,29.98,SW,222,7.0,10.0,68,0.00,,,0.00,0,Wunderground v.1.15,2013-01-16 03:55:00,
2013-01-15 22:00:00,18.3,9.8,29.98,SW,223,7.0,9.0,69,0.00,,,0.00,0,Wunderground v.1.15,2013-01-16 04:00:00,
2013-01-15 22:05:00,18.1,9.6,29.98,SW,219,7.0,11.0,69,0.00,,,0.00,0,Wunderground v.1.15,2013-01-16 04:05:00,
2013-01-15 22:10:00,18.1,9.6,29.97,SW,225,6.0,8.0,69,0.00,,,0.00,0,Wunderground v.1.15,2013-01-16 04:10:00,
2013-01-15 22:15:00,18.0,9.5,29.97,SW,226,5.0,9.0,69,0.00,,,0.00,0,Wunderground v.1.15,2013-01-16 04:15:00,
2013-01-15 22:20:00,17.9,9.4,29.96,SW,227,4.0,6.0,69,0.00,,,0.00,0,Wunderground v.1.15,2013-01-16 04:20:00,
2013-01-15 22:25:00,17.8,9.7,29.97,SW,219,6.0,8.0,70,0.00,,,0.00,0,Wunderground v.1.15,2013-01-16 04:25:00,
2013-01-15 22:30:00,17.7,9.6,29.97,SW,221,4.0,7.0,70,0.00,,,0.00,0,Wunderground v.1.15,2013-01-16 04:30:00,
2013-01-15 22:35:00,17.6,9.8,29.96,SW,221,4.0,7.0,71,0.00,,,0.00,0,Wunderground v.1.15,2013-01-16 04:35:00,
2013-01-15 22:40:00,17.5,10.0,29.96,SW,225,5.0,6.0,72,0.00,,,0.00,0,Wunderground v.1.15,2013-01-16 04:40:00,
2013-01-15 22:45:00,17.5,10.3,29.96,SW,217,4.0,6.0,73,0.00,,,0.00,0,Wunderground v.1.15,2013-01-16 04:45:00,
2013-01-15 22:50:00,17.6,10.4,29.96,SW,223,3.0,5.0,73,0.00,,,0.00,0,Wunderground v.1.15,2013-01-16 04:50:00,
2013-01-15 22:55:00,17.6,10.4,29.96,SW,225,4.0,5.0,73,0.00,,,0.00,0,Wunderground v.1.15,2013-01-16 04:55:00,
2013-01-15 23:00:00,17.4,10.5,29.95,SSW,212,4.0,4.0,74,0.00,,,0.00,0,Wunderground v.1.15,2013-01-16 05:00:00,
2013-01-15 23:03:00,17.0,10.1,29.95,SSW,202,5.0,6.0,74,0.00,,,0.00,0,Wunderground v.1.15,2013-01-16 05:03:00,
2013-01-15 23:08:00,17.0,10.4,29.94,SSW,205,3.0,7.0,75,0.00,,,0.00,0,Wunderground v.1.15,2013-01-16 05:08:00,
2013-01-15 23:13:00,17.7,11.4,29.95,SW,224,4.0,8.0,76,0.00,,,0.00,0,Wunderground v.1.15,2013-01-16 05:13:00,
2013-01-15 23:18:00,18.2,11.9,29.95,SW,217,5.0,8.0,76,0.00,,,0.00,0,Wunderground v.1.15,2013-01-16 05:18:00,
2013-01-15 23:23:00,18.4,11.8,29.95,SW,221,6.0,7.0,75,0.00,,,0.00,0,Wunderground v.1.15,2013-01-16 05:23:00,
2013-01-15 23:28:00,18.5,11.9,29.95,SW,220,5.0,7.0,75,0.00,,,0.00,0,Wunderground v.1.15,2013-01-16 05:28:00,
2013-01-15 23:33:00,18.8,12.5,29.95,SW,234,4.0,7.0,76,0.00,,,0.00,0,Wunderground v.1.15,2013-01-16 05:33:00,
2013-01-15 23:38:00,18.9,12.6,29.94,SW,219,8.0,8.0,76,0.00,,,0.00,0,Wunderground v.1.15,2013-01-16 05:38:00,
2013-01-15 23:43:00,19.0,12.7,29.94,SW,234,8.0,9.0,76,0.00,,,0.00,0,Wunderground v.1.15,2013-01-16 05:43:00,
2013-01-15 23:48:00,19.1,12.8,29.94,SW,220,7.0,9.0,76,0.00,,,0.00,0,Wunderground v.1.15,2013-01-16 05:48:00,
2013-01-15 23:53:00,19.4,13.4,29.94,SW,223,5.0,7.0,77,0.00,,,0.00,0,Wunderground v.1.15,2013-01-16 05:53:00,
2013-01-15 23:58:00,19.7,13.4,29.94,SW,222,6.0,10.0,76,0.00,,,0.00,0,Wunderground v.1.15,2013-01-16 05:58:00,